Time,TemperatureF,DewpointF,PressureIn,WindDirection,WindDirectionDegrees,WindSpeedMPH,WindSpeedGustMPH,Humidity,HourlyPrecipIn,Conditions,Clouds,dailyrainin,SoftwareType,DateUTC
2013-03-03 00:00:00,28.8,16.2,29.73,West,270,3.8,3.8,59,0.00,CLR,CLR,0.00,WeatherDisplay:10.37,2013-03-03 05:00:00,
2013-03-03 00:01:00,28.9,16.4,29.73,NNW,338,0.0,0.0,59,0.00,CLR,CLR,0.00,WeatherDisplay:10.37,2013-03-03 05:01:00,
2013-03-03 00:02:00,28.9,16.4,29.73,NNE,22,2.9,0.0,59,0.00,CLR,CLR,0.00,WeatherDisplay:10.37,2013-03-03 05:02:00,
2013-03-03 00:03:00,28.9,16.4,29.73,NNE,22,2.9,3.5,59,0.00,CLR,CLR,0.00,WeatherDisplay:10.37,2013-03-03 05:03:00,
2013-03-03 00:08:00,28.9,16.4,29.73,North,0,4.2,4.6,59,0.00,CLR,CLR,0.00,WeatherDisplay:10.37,2013-03-03 05:08:00,
2013-03-03 00:13:00,29.1,16.6,29.73,North,0,4.9,4.9,59,0.00,CLR,CLR,0.00,WeatherDisplay:10.37,2013-03-03 05:13:00,
2013-03-03 00:18:00,29.1,16.6,29.72,NNW,338,3.3,3.5,59,0.00,CLR,CLR,0.00,WeatherDisplay:10.37,2013-03-03 05:18:00,
2013-03-03 00:23:00,29.1,16.6,29.73,NNW,338,6.5,6.9,59,0.00,CLR,CLR,0.00,WeatherDisplay:10.37,2013-03-03 05:23:00,
2013-03-03 00:29:00,29.1,16.6,29.73,North,0,0.0,0.0,59,0.00,CLR,CLR,0.00,WeatherDisplay:10.37,2013-03-03 05:29:00,
2013-03-03 00:34:00,29.1,16.6,29.73,NNW,338,0.0,0.0,59,0.00,CLR,CLR,0.00,WeatherDisplay:10.37,2013-03-03 05:34:00,
2013-03-03 00:39:00,29.1,16.6,29.73,North,0,5.2,5.8,59,0.00,CLR,CLR,0.00,WeatherDisplay:10.37,2013-03-03 05:39:00,
2013-03-03 00:44:00,29.1,16.6,29.73,NNE,22,4.9,4.9,59,0.00,CLR,CLR,0.00,WeatherDisplay:10.37,2013-03-03 05:44:00,
2013-03-03 00:49:00,28.8,16.2,29.73,NNW,338,4.2,4.6,59,0.00,CLR,CLR,0.00,WeatherDisplay:10.37,2013-03-03 05:49:00,
2013-03-03 00:54:00,28.9,16.4,29.73,NNE,22,3.5,3.5,59,0.00,CLR,CLR,0.00,WeatherDisplay:10.37,2013-03-03 05:54:00,
2013-03-03 00:59:00,28.9,16.4,29.73,NNW,338,5.8,5.8,59,0.00,CLR,CLR,0.00,WeatherDisplay:10.37,2013-03-03 05:59:00,
2013-03-03 01:04:00,28.9,16.4,29.73,NNW,338,5.8,5.8,59,0.00,CLR,CLR,0.00,WeatherDisplay:10.37,2013-03-03 06:04:00,
2013-03-03 01:09:00,28.9,16.4,29.73,NE,45,4.4,4.6,59,0.00,CLR,CLR,0.00,WeatherDisplay:10.37,2013-03-03 06:09:00,
2013-03-03 01:14:00,28.9,16.4,29.73,North,0,4.4,4.6,59,0.00,CLR,CLR,0.00,WeatherDisplay:10.37,2013-03-03 06:14:00,
2013-03-03 01:19:00,28.9,16.4,29.74,NNE,22,0.0,0.0,59,0.00,CLR,CLR,0.00,WeatherDisplay:10.37,2013-03-03 06:19:00,
2013-03-03 01:24:00,28.9,16.4,29.74,NNE,22,3.3,3.5,59,0.00,CLR,CLR,0.00,WeatherDisplay:10.37,2013-03-03 06:24:00,
2013-03-03 01:29:00,28.9,16.4,29.73,NNW,338,7.7,8.1,59,0.00,CLR,CLR,0.00,WeatherDisplay:10.37,2013-03-03 06:29:00,
2013-03-03 01:35:00,28.9,16.4,29.73,NNE,22,4.2,4.6,59,0.00,CLR,CLR,0.00,WeatherDisplay:10.37,2013-03-03 06:35:00,
2013-03-03 01:40:00,28.9,16.4,29.73,NE,45,3.1,3.5,59,0.00,CLR,CLR,0.00,WeatherDisplay:10.37,2013-03-03 06:40:00,
2013-03-03 01:45:00,28.9,16.4,29.73,NNW,338,5.2,5.8,59,0.00,CLR,CLR,0.00,WeatherDisplay:10.37,2013-03-03 06:45:00,
2013-03-03 01:50:00,28.8,16.2,29.73,NNE,22,4.2,4.6,59,0.00,CLR,CLR,0.00,WeatherDisplay:10.37,2013-03-03 06:50:00,
2013-03-03 01:55:00,28.8,16.2,29.73,NNE,22,4.0,4.0,59,0.00,CLR,CLR,0.00,WeatherDisplay:10.37,2013-03-03 06:55:00,
2013-03-03 02:00:00,28.8,16.2,29.73,NNE,22,4.0,4.0,59,0.00,CLR,CLR,0.00,WeatherDisplay:10.37,2013-03-03 07:00:00,
2013-03-03 02:05:00,28.8,16.2,29.73,NNE,22,4.0,4.0,59,0.00,CLR,CLR,0.00,WeatherDisplay:10.37,2013-03-03 07:05:00,
2013-03-03 02:11:00,28.8,16.2,29.73,North,0,3.3,3.5,59,0.00,CLR,CLR,0.00,WeatherDisplay:10.37,2013-03-03 07:11:00,
2013-03-03 02:16:00,28.8,16.6,29.73,North,0,2.9,3.5,60,0.00,CLR,CLR,0.00,WeatherDisplay:10.37,2013-03-03 07:16:00,
2013-03-03 02:21:00,28.6,16.1,29.72,NNE,22,5.3,5.3,59,0.00,CLR,CLR,0.00,WeatherDisplay:10.37,2013-03-03 07:21:00,
2013-03-03 02:26:00,28.6,16.1,29.72,NNE,22,3.1,3.5,59,0.00,CLR,CLR,0.00,WeatherDisplay:10.37,2013-03-03 07:26:00,
2013-03-03 02:31:00,28.6,16.1,29.73,NNE,22,0.0,0.0,59,0.00,CLR,CLR,0.00,WeatherDisplay:10.37,2013-03-03 07:31:00,
2013-03-03 02:36:00,28.0,15.5,29.72,NNE,22,4.0,4.0,59,0.00,CLR,CLR,0.00,WeatherDisplay:10.37,2013-03-03 07:36:00,
2013-03-03 02:41:00,28.0,15.5,29.72,NNE,22,6.1,6.1,59,0.00,CLR,CLR,0.00,WeatherDisplay:10.37,2013-03-03 07:41:00,
2013-03-03 02:47:00,28.4,15.9,29.72,NNW,338,4.9,4.9,59,0.00,CLR,CLR,0.00,WeatherDisplay:10.37,2013-03-03 07:47:00,
2013-03-03 02:52:00,28.2,16.1,29.71,North,0,3.3,3.5,60,0.00,CLR,CLR,0.00,WeatherDisplay:10.37,2013-03-03 07:52:00,
2013-03-03 02:57:00,28.0,15.9,29.71,NE,45,2.9,3.5,60,0.00,CLR,CLR,0.00,WeatherDisplay:10.37,2013-03-03 07:57:00,
2013-03-03 03:02:00,28.0,15.9,29.71,NE,45,2.9,3.5,60,0.00,CLR,CLR,0.00,WeatherDisplay:10.37,2013-03-03 08:02:00,
2013-03-03 03:07:00,28.0,15.9,29.71,NE,45,2.9,3.5,60,0.00,CLR,CLR,0.00,WeatherDisplay:10.37,2013-03-03 08:07:00,
2013-03-03 03:12:00,27.5,15.0,29.71,NNE,22,4.2,4.6,59,0.00,CLR,CLR,0.00,WeatherDisplay:10.37,2013-03-03 08:12:00,
2013-03-03 03:17:00,27.7,15.6,29.71,NNE,22,5.2,5.2,60,0.00,CLR,CLR,0.00,WeatherDisplay:10.37,2013-03-03 08:17:00,
2013-03-03 03:22:00,27.5,15.4,29.71,North,0,7.0,7.0,60,0.00,CLR,CLR,0.00,WeatherDisplay:10.37,2013-03-03 08:22:00,
2013-03-03 03:27:00,27.7,15.6,29.71,North,0,7.2,7.2,60,0.00,CLR,CLR,0.00,WeatherDisplay:10.37,2013-03-03 08:27:00,
2013-03-03 03:32:00,27.7,16.0,29.71,NE,45,7.9,8.1,61,0.00,CLR,CLR,0.00,WeatherDisplay:10.37,2013-03-03 08:32:00,
2013-03-03 03:38:00,27.7,16.0,29.71,NNE,22,7.9,7.9,61,0.00,CLR,CLR,0.00,WeatherDisplay:10.37,2013-03-03 08:38:00,
2013-03-03 03:43:00,27.5,15.8,29.71,NNE,22,4.9,4.9,61,0.00,CLR,CLR,0.00,WeatherDisplay:10.37,2013-03-03 08:43:00,
2013-03-03 03:48:00,27.1,15.1,29.70,North,0,5.2,5.8,60,0.00,CLR,CLR,0.00,WeatherDisplay:10.37,2013-03-03 08:48:00,
2013-03-03 03:53:00,27.3,15.2,29.71,NE,45,4.2,4.6,60,0.00,CLR,CLR,0.00,WeatherDisplay:10.37,2013-03-03 08:53:00,
2013-03-03 03:58:00,27.1,15.1,29.71,NNE,22,6.1,6.1,60,0.00,CLR,CLR,0.00,WeatherDisplay:10.37,2013-03-03 08:58:00,
2013-03-03 04:04:00,27.1,15.1,29.71,NNE,22,6.1,6.1,60,0.00,CLR,CLR,0.00,WeatherDisplay:10.37,2013-03-03 09:04:00,
2013-03-03 04:09:00,27.1,15.1,29.71,NE,45,7.0,0.0,60,0.00,CLR,CLR,0.00,WeatherDisplay:10.37,2013-03-03 09:09:00,
2013-03-03 04:14:00,26.8,14.7,29.71,NNE,22,5.2,5.8,60,0.00,CLR,CLR,0.00,WeatherDisplay:10.37,2013-03-03 09:14:00,
2013-03-03 04:19:00,26.8,14.4,29.71,NNE,22,4.0,4.0,59,0.00,CLR,CLR,0.00,WeatherDisplay:10.37,2013-03-03 09:19:00,
2013-03-03 04:25:00,26.8,14.4,29.71,NNE,22,3.3,3.5,59,0.00,CLR,CLR,0.00,WeatherDisplay:10.37,2013-03-03 09:25:00,
2013-03-03 04:30:00,26.2,13.8,29.71,NNE,22,4.2,4.6,59,0.00,CLR,CLR,0.00,WeatherDisplay:10.37,2013-03-03 09:30:00,
2013-03-03 04:35:00,26.4,13.6,29.71,NE,45,3.8,4.6,58,0.00,CLR,CLR,0.00,WeatherDisplay:10.37,2013-03-03 09:35:00,
2013-03-03 04:40:00,26.4,13.6,29.71,NNE,22,4.9,4.9,58,0.00,CLR,CLR,0.00,WeatherDisplay:10.37,2013-03-03 09:40:00,
2013-03-03 04:45:00,26.4,14.0,29.71,NNE,22,4.4,4.6,59,0.00,CLR,CLR,0.00,WeatherDisplay:10.37,2013-03-03 09:45:00,
2013-03-03 04:50:00,26.2,13.8,29.72,NE,45,6.1,6.1,59,0.00,CLR,CLR,0.00,WeatherDisplay:10.37,2013-03-03 09:50:00,
2013-03-03 04:56:00,26.2,13.5,29.72,North,0,3.8,3.8,58,0.00,CLR,CLR,0.00,WeatherDisplay:10.37,2013-03-03 09:56:00,
2013-03-03 05:01:00,26.2,13.5,29.72,North,0,3.8,3.8,58,0.00,CLR,CLR,0.00,WeatherDisplay:10.37,2013-03-03 10:01:00,
2013-03-03 05:06:00,26.2,13.5,29.72,North,0,3.8,3.8,58,0.00,CLR,CLR,0.00,WeatherDisplay:10.37,2013-03-03 10:06:00,
2013-03-03 05:11:00,26.2,13.5,29.72,NE,45,0.0,0.0,58,0.00,CLR,CLR,0.00,WeatherDisplay:10.37,2013-03-03 10:11:00,
2013-03-03 05:16:00,26.2,13.8,29.72,NNE,22,0.6,1.2,59,0.00,CLR,CLR,0.00,WeatherDisplay:10.37,2013-03-03 10:16:00,
2013-03-03 05:21:00,25.9,13.5,29.72,NE,45,3.5,3.5,59,0.00,CLR,CLR,0.00,WeatherDisplay:10.37,2013-03-03 10:21:00,
2013-03-03 05:26:00,25.9,13.5,29.72,NNE,22,0.0,0.0,59,0.00,CLR,CLR,0.00,WeatherDisplay:10.37,2013-03-03 10:26:00,
2013-03-03 05:31:00,25.7,13.7,29.72,NNE,22,4.0,4.0,60,0.00,CLR,CLR,0.00,WeatherDisplay:10.37,2013-03-03 10:31:00,
2013-03-03 05:36:00,25.5,13.5,29.72,NNE,22,3.1,3.5,60,0.00,CLR,CLR,0.00,WeatherDisplay:10.37,2013-03-03 10:36:00,
2013-03-03 05:41:00,25.3,13.4,29.72,NNE,22,4.4,4.6,60,0.00,CLR,CLR,0.00,WeatherDisplay:10.37,2013-03-03 10:41:00,
2013-03-03 05:47:00,25.3,13.4,29.72,NNE,22,3.8,3.8,60,0.00,CLR,CLR,0.00,WeatherDisplay:10.37,2013-03-03 10:47:00,
2013-03-03 05:52:00,25.7,13.7,29.72,NNE,22,5.2,5.8,60,0.00,CLR,CLR,0.00,WeatherDisplay:10.37,2013-03-03 10:52:00,
2013-03-03 05:57:00,25.3,13.4,29.72,North,0,2.4,2.4,60,0.00,CLR,CLR,0.00,WeatherDisplay:10.37,2013-03-03 10:57:00,
2013-03-03 06:02:00,25.3,13.4,29.72,North,0,2.4,2.4,60,0.00,CLR,CLR,0.00,WeatherDisplay:10.37,2013-03-03 11:02:00,
2013-03-03 06:07:00,25.7,13.7,29.72,NE,45,0.0,0.0,60,0.00,CLR,CLR,0.00,WeatherDisplay:10.37,2013-03-03 11:07:00,
2013-03-03 06:12:00,25.7,13.7,29.72,North,0,0.0,0.0,60,0.00,CLR,CLR,0.00,WeatherDisplay:10.37,2013-03-03 11:12:00,
2013-03-03 06:18:00,25.7,13.7,29.72,NNE,22,4.4,4.6,60,0.00,CLR,CLR,0.00,WeatherDisplay:10.37,2013-03-03 11:18:00,
2013-03-03 06:23:00,25.3,13.0,29.72,NNE,22,5.2,5.8,59,0.00,CLR,CLR,0.00,WeatherDisplay:10.37,2013-03-03 11:23:00,
2013-03-03 06:28:00,25.3,13.0,29.72,North,0,4.4,4.6,59,0.00,CLR,CLR,0.00,WeatherDisplay:10.37,2013-03-03 11:28:00,
2013-03-03 06:33:00,25.3,12.6,29.72,NNE,22,4.6,4.6,58,0.00,CLR,CLR,0.00,WeatherDisplay:10.37,2013-03-03 11:33:00,
2013-03-03 06:38:00,25.3,12.6,29.73,NNE,22,5.8,5.8,58,0.00,CLR,CLR,0.00,WeatherDisplay:10.37,2013-03-03 11:38:00,
2013-03-03 06:43:00,25.5,12.4,29.73,North,0,5.8,5.8,57,0.00,CLR,CLR,0.00,WeatherDisplay:10.37,2013-03-03 11:43:00,
2013-03-03 06:48:00,25.5,12.4,29.73,North,0,6.1,6.1,57,0.00,CLR,CLR,0.00,WeatherDisplay:10.37,2013-03-03 11:48:00,
2013-03-03 06:54:00,25.5,12.4,29.73,NNE,22,4.6,4.6,57,0.00,CLR,CLR,0.00,WeatherDisplay:10.37,2013-03-03 11:54:00,
2013-03-03 06:59:00,25.5,12.4,29.73,NE,45,7.2,7.2,57,0.00,CLR,CLR,0.00,WeatherDisplay:10.37,2013-03-03 11:59:00,
2013-03-03 07:04:00,25.7,12.2,29.73,NNE,22,6.3,6.3,56,0.00,CLR,CLR,0.00,WeatherDisplay:10.37,2013-03-03 12:04:00,
2013-03-03 07:09:00,25.7,12.2,29.74,NW,315,8.3,8.3,56,0.00,CLR,CLR,0.00,WeatherDisplay:10.37,2013-03-03 12:09:00,
2013-03-03 07:14:00,25.7,12.2,29.74,NNE,22,6.5,6.9,56,0.00,CLR,CLR,0.00,WeatherDisplay:10.37,2013-03-03 12:14:00,
2013-03-03 07:19:00,25.9,12.3,29.74,NNE,22,6.3,6.9,56,0.00,CLR,CLR,0.00,WeatherDisplay:10.37,2013-03-03 12:19:00,
2013-03-03 07:24:00,25.9,12.7,29.74,NNE,22,4.6,4.6,57,0.00,CLR,CLR,0.00,WeatherDisplay:10.37,2013-03-03 12:24:00,
2013-03-03 07:29:00,25.9,12.3,29.74,NNE,22,4.2,4.6,56,0.00,CLR,CLR,0.00,WeatherDisplay:10.37,2013-03-03 12:29:00,
2013-03-03 07:35:00,25.9,12.3,29.74,NNW,338,7.9,9.2,56,0.00,CLR,CLR,0.00,WeatherDisplay:10.37,2013-03-03 12:35:00,
2013-03-03 07:40:00,26.2,12.7,29.74,NNE,22,6.3,6.3,56,0.00,CLR,CLR,0.00,WeatherDisplay:10.37,2013-03-03 12:40:00,
2013-03-03 07:45:00,26.4,12.8,29.74,NNE,22,4.6,4.6,56,0.00,CLR,CLR,0.00,WeatherDisplay:10.37,2013-03-03 12:45:00,
2013-03-03 07:50:00,26.8,13.2,29.74,North,0,4.9,4.9,56,0.00,CLR,CLR,0.00,WeatherDisplay:10.37,2013-03-03 12:50:00,
2013-03-03 07:55:00,26.8,13.2,29.74,North,0,3.1,3.5,56,0.00,CLR,CLR,0.00,WeatherDisplay:10.37,2013-03-03 12:55:00,
2013-03-03 08:00:00,26.8,13.2,29.74,NE,45,4.6,4.6,56,0.00,CLR,CLR,0.00,WeatherDisplay:10.37,2013-03-03 13:00:00,
2013-03-03 08:06:00,27.1,13.5,29.75,NNE,22,3.3,3.5,56,0.00,CLR,CLR,0.00,WeatherDisplay:10.37,2013-03-03 13:06:00,
2013-03-03 08:11:00,27.1,13.5,29.74,NE,45,8.3,8.3,56,0.00,CLR,CLR,0.00,WeatherDisplay:10.37,2013-03-03 13:11:00,
2013-03-03 08:16:00,27.3,13.3,29.74,North,0,6.1,6.1,55,0.00,CLR,CLR,0.00,WeatherDisplay:10.37,2013-03-03 13:16:00,
2013-03-03 08:21:00,27.7,13.6,29.75,NNW,338,2.6,2.6,55,0.00,CLR,CLR,0.00,WeatherDisplay:10.37,2013-03-03 13:21:00,
2013-03-03 08:26:00,28.0,13.9,29.75,North,0,3.8,3.8,55,0.00,CLR,CLR,0.00,WeatherDisplay:10.37,2013-03-03 13:26:00,
2013-03-03 08:31:00,28.0,14.3,29.75,NNE,22,4.2,4.6,56,0.00,CLR,CLR,0.00,WeatherDisplay:10.37,2013-03-03 13:31:00,
2013-03-03 08:36:00,28.4,14.3,29.75,NNE,22,4.6,4.6,55,0.00,CLR,CLR,0.00,WeatherDisplay:10.37,2013-03-03 13:36:00,
2013-03-03 08:41:00,28.6,14.4,29.75,NNE,22,4.2,4.6,55,0.00,CLR,CLR,0.00,WeatherDisplay:10.37,2013-03-03 13:41:00,
2013-03-03 08:46:00,29.1,14.5,29.75,NE,45,4.6,4.6,54,0.00,CLR,CLR,0.00,WeatherDisplay:10.37,2013-03-03 13:46:00,
2013-03-03 08:51:00,28.9,14.4,29.75,North,0,5.3,5.8,54,0.00,CLR,CLR,0.00,WeatherDisplay:10.37,2013-03-03 13:51:00,
2013-03-03 08:56:00,29.5,14.0,29.75,North,0,8.8,9.2,52,0.00,CLR,CLR,0.00,WeatherDisplay:10.37,2013-03-03 13:56:00,
2013-03-03 09:02:00,29.3,14.3,29.75,NE,45,5.3,5.8,53,0.00,CLR,CLR,0.00,WeatherDisplay:10.37,2013-03-03 14:02:00,
2013-03-03 09:07:00,29.7,13.7,29.75,North,0,6.8,9.2,51,0.00,CLR,CLR,0.00,WeatherDisplay:10.37,2013-03-03 14:07:00,
2013-03-03 09:12:00,29.7,13.7,29.75,North,0,10.2,10.2,51,0.00,CLR,CLR,0.00,WeatherDisplay:10.37,2013-03-03 14:12:00,
2013-03-03 09:17:00,29.8,13.9,29.75,NNE,22,6.5,6.9,51,0.00,CLR,CLR,0.00,WeatherDisplay:10.37,2013-03-03 14:17:00,
2013-03-03 09:22:00,30.4,14.4,29.75,NE,45,8.3,8.3,51,0.00,CLR,CLR,0.00,WeatherDisplay:10.37,2013-03-03 14:22:00,
2013-03-03 09:27:00,30.6,14.6,29.75,North,0,6.8,6.9,51,0.00,CLR,CLR,0.00,WeatherDisplay:10.37,2013-03-03 14:27:00,
2013-03-03 09:32:00,30.7,14.3,29.75,NNE,22,7.7,9.2,50,0.00,CLR,CLR,0.00,WeatherDisplay:10.37,2013-03-03 14:32:00,
2013-03-03 09:37:00,30.9,14.9,29.75,NNE,22,5.2,5.8,51,0.00,CLR,CLR,0.00,WeatherDisplay:10.37,2013-03-03 14:37:00,
2013-03-03 09:42:00,31.5,14.9,29.75,NE,45,5.5,5.8,50,0.00,CLR,CLR,0.00,WeatherDisplay:10.37,2013-03-03 14:42:00,
2013-03-03 09:47:00,31.8,15.3,29.75,NNE,22,2.6,2.6,50,0.00,CLR,CLR,0.00,WeatherDisplay:10.37,2013-03-03 14:47:00,
2013-03-03 09:52:00,31.6,14.6,29.75,North,0,9.2,9.2,49,0.00,CLR,CLR,0.00,WeatherDisplay:10.37,2013-03-03 14:52:00,
2013-03-03 09:57:00,31.1,14.1,29.75,NNE,22,7.0,7.0,49,0.00,CLR,CLR,0.00,WeatherDisplay:10.37,2013-03-03 14:57:00,
2013-03-03 10:03:00,31.3,14.3,29.75,NNE,22,4.6,4.6,49,0.00,CLR,CLR,0.00,WeatherDisplay:10.37,2013-03-03 15:03:00,
2013-03-03 10:08:00,31.6,14.2,29.75,NNE,22,7.4,7.4,48,0.00,CLR,CLR,0.00,WeatherDisplay:10.37,2013-03-03 15:08:00,
2013-03-03 10:13:00,32.0,15.0,29.75,NNE,22,7.0,7.0,49,0.00,CLR,CLR,0.00,WeatherDisplay:10.37,2013-03-03 15:13:00,
2013-03-03 10:18:00,31.8,14.8,29.75,NE,45,5.2,5.8,49,0.00,CLR,CLR,0.00,WeatherDisplay:10.37,2013-03-03 15:18:00,
2013-03-03 10:24:00,32.4,15.3,29.75,NNW,338,7.4,7.4,49,0.00,CLR,CLR,0.00,WeatherDisplay:10.37,2013-03-03 15:24:00,
2013-03-03 10:29:00,32.4,14.4,29.75,North,0,7.2,7.2,47,0.00,CLR,CLR,0.00,WeatherDisplay:10.37,2013-03-03 15:29:00,
2013-03-03 10:34:00,31.8,14.3,29.75,NW,315,5.2,5.8,48,0.00,CLR,CLR,0.00,WeatherDisplay:10.37,2013-03-03 15:34:00,
2013-03-03 10:39:00,32.2,14.2,29.75,North,0,9.0,9.0,47,0.00,CLR,CLR,0.00,WeatherDisplay:10.37,2013-03-03 15:39:00,
2013-03-03 10:44:00,32.4,14.8,29.75,North,0,4.6,4.6,48,0.00,CLR,CLR,0.00,WeatherDisplay:10.37,2013-03-03 15:44:00,
2013-03-03 10:49:00,32.5,15.0,29.75,North,0,0.4,0.4,48,0.00,CLR,CLR,0.00,WeatherDisplay:10.37,2013-03-03 15:49:00,
2013-03-03 10:54:00,32.4,14.8,29.75,NNE,22,4.9,6.9,48,0.00,CLR,CLR,0.00,WeatherDisplay:10.37,2013-03-03 15:54:00,
2013-03-03 10:59:00,33.1,16.0,29.75,NW,315,5.5,5.5,49,0.00,CLR,CLR,0.00,WeatherDisplay:10.37,2013-03-03 15:59:00,
2013-03-03 11:04:00,33.3,15.7,29.75,NNW,338,6.5,6.5,48,0.00,CLR,CLR,0.00,WeatherDisplay:10.37,2013-03-03 16:04:00,
2013-03-03 11:10:00,33.6,16.0,29.75,NNW,338,2.2,2.3,48,0.00,CLR,CLR,0.00,WeatherDisplay:10.37,2013-03-03 16:10:00,
2013-03-03 11:15:00,33.4,15.3,29.75,NNE,22,3.3,3.5,47,0.00,CLR,CLR,0.00,WeatherDisplay:10.37,2013-03-03 16:15:00,
2013-03-03 11:20:00,34.5,15.8,29.75,North,0,6.5,6.9,46,0.00,CLR,CLR,0.00,WeatherDisplay:10.37,2013-03-03 16:20:00,
2013-03-03 11:25:00,34.5,16.3,29.75,NNW,338,4.6,4.6,47,0.00,CLR,CLR,0.00,WeatherDisplay:10.37,2013-03-03 16:25:00,
2013-03-03 11:30:00,34.3,15.7,29.74,North,0,4.2,4.6,46,0.00,CLR,CLR,0.00,WeatherDisplay:10.37,2013-03-03 16:30:00,
2013-03-03 11:36:00,34.7,16.5,29.74,North,0,3.5,3.5,47,0.00,CLR,CLR,0.00,WeatherDisplay:10.37,2013-03-03 16:36:00,
2013-03-03 11:41:00,34.9,16.2,29.74,North,0,4.4,4.6,46,0.00,CLR,CLR,0.00,WeatherDisplay:10.37,2013-03-03 16:41:00,
2013-03-03 11:46:00,35.1,16.3,29.74,NE,45,4.2,5.8,46,0.00,CLR,CLR,0.00,WeatherDisplay:10.37,2013-03-03 16:46:00,
2013-03-03 11:51:00,35.2,16.5,29.73,North,0,2.6,2.6,46,0.00,CLR,CLR,0.00,WeatherDisplay:10.37,2013-03-03 16:51:00,
2013-03-03 11:56:00,35.8,17.5,29.73,NNE,22,4.0,4.0,47,0.00,CLR,CLR,0.00,WeatherDisplay:10.37,2013-03-03 16:56:00,
2013-03-03 12:01:00,36.3,17.0,29.73,North,0,5.2,5.8,45,0.00,CLR,CLR,0.00,WeatherDisplay:10.37,2013-03-03 17:01:00,
2013-03-03 12:06:00,36.3,17.0,29.73,NE,45,6.1,6.1,45,0.00,CLR,CLR,0.00,WeatherDisplay:10.37,2013-03-03 17:06:00,
2013-03-03 12:11:00,36.5,17.7,29.73,NE,45,4.2,4.6,46,0.00,CLR,CLR,0.00,WeatherDisplay:10.37,2013-03-03 17:11:00,
2013-03-03 12:16:00,37.0,18.1,29.72,NNE,22,7.4,7.4,46,0.00,CLR,CLR,0.00,WeatherDisplay:10.37,2013-03-03 17:16:00,
2013-03-03 12:21:00,37.0,17.1,29.72,NNE,22,3.5,3.5,44,0.00,CLR,CLR,0.00,WeatherDisplay:10.37,2013-03-03 17:21:00,
2013-03-03 12:26:00,37.0,17.6,29.72,NNE,22,6.5,6.9,45,0.00,CLR,CLR,0.00,WeatherDisplay:10.37,2013-03-03 17:26:00,
2013-03-03 12:32:00,37.2,17.8,29.72,NE,45,4.4,4.6,45,0.00,CLR,CLR,0.00,WeatherDisplay:10.37,2013-03-03 17:32:00,
2013-03-03 12:37:00,37.4,17.4,29.72,NE,45,5.2,5.8,44,0.00,CLR,CLR,0.00,WeatherDisplay:10.37,2013-03-03 17:37:00,
2013-03-03 12:42:00,37.8,17.8,29.72,NNE,22,6.8,6.9,44,0.00,CLR,CLR,0.00,WeatherDisplay:10.37,2013-03-03 17:42:00,
2013-03-03 12:47:00,37.4,18.0,29.71,NE,45,5.8,9.2,45,0.00,CLR,CLR,0.00,WeatherDisplay:10.37,2013-03-03 17:47:00,
2013-03-03 12:52:00,38.1,18.1,29.71,NE,45,7.7,7.7,44,0.00,CLR,CLR,0.00,WeatherDisplay:10.37,2013-03-03 17:52:00,
2013-03-03 12:57:00,38.8,18.8,29.71,NNE,22,5.3,5.8,44,0.00,CLR,CLR,0.00,WeatherDisplay:10.37,2013-03-03 17:57:00,
2013-03-03 13:02:00,39.2,18.5,29.71,NE,45,6.5,6.9,43,0.00,CLR,CLR,0.00,WeatherDisplay:10.37,2013-03-03 18:02:00,
2013-03-03 13:07:00,38.5,17.9,29.71,NE,45,8.1,8.1,43,0.00,CLR,CLR,0.00,WeatherDisplay:10.37,2013-03-03 18:07:00,
2013-03-03 13:12:00,38.5,18.4,29.71,North,0,2.9,3.5,44,0.00,CLR,CLR,0.00,WeatherDisplay:10.37,2013-03-03 18:12:00,
2013-03-03 13:18:00,39.0,18.9,29.71,NNE,22,0.0,0.0,44,0.00,CLR,CLR,0.00,WeatherDisplay:10.37,2013-03-03 18:18:00,
2013-03-03 13:23:00,39.6,18.3,29.70,NNW,338,4.4,4.6,42,0.00,CLR,CLR,0.00,WeatherDisplay:10.37,2013-03-03 18:23:00,
2013-03-03 13:28:00,38.8,18.2,29.71,NNE,22,4.6,4.6,43,0.00,CLR,CLR,0.00,WeatherDisplay:10.37,2013-03-03 18:28:00,
2013-03-03 13:33:00,38.8,18.8,29.71,NW,315,7.0,7.0,44,0.00,CLR,CLR,0.00,WeatherDisplay:10.37,2013-03-03 18:33:00,
2013-03-03 13:38:00,39.2,19.1,29.70,NE,45,4.6,4.6,44,0.00,CLR,CLR,0.00,WeatherDisplay:10.37,2013-03-03 18:38:00,
2013-03-03 13:43:00,39.7,19.0,29.70,North,0,5.8,6.9,43,0.00,CLR,CLR,0.00,WeatherDisplay:10.37,2013-03-03 18:43:00,
2013-03-03 13:48:00,39.4,18.7,29.70,NNE,22,6.3,6.3,43,0.00,CLR,CLR,0.00,WeatherDisplay:10.37,2013-03-03 18:48:00,
2013-03-03 13:53:00,38.8,18.2,29.69,NNW,338,5.2,5.8,43,0.00,CLR,CLR,0.00,WeatherDisplay:10.37,2013-03-03 18:53:00,
2013-03-03 13:59:00,37.9,17.4,29.70,NNE,22,6.8,6.8,43,0.00,CLR,CLR,0.00,WeatherDisplay:10.37,2013-03-03 18:59:00,
2013-03-03 14:04:00,38.1,19.1,29.70,NNW,338,5.2,10.4,46,0.00,CLR,CLR,0.00,WeatherDisplay:10.37,2013-03-03 19:04:00,
2013-03-03 14:09:00,38.8,19.3,29.70,NE,45,6.5,6.9,45,0.00,CLR,CLR,0.00,WeatherDisplay:10.37,2013-03-03 19:09:00,
2013-03-03 14:14:00,38.1,18.1,29.70,North,0,9.2,9.2,44,0.00,CLR,CLR,0.00,WeatherDisplay:10.37,2013-03-03 19:14:00,
2013-03-03 14:19:00,37.9,17.4,29.70,NNE,22,3.1,3.5,43,0.00,CLR,CLR,0.00,WeatherDisplay:10.37,2013-03-03 19:19:00,
2013-03-03 14:24:00,38.1,18.1,29.70,NNE,22,6.3,6.3,44,0.00,CLR,CLR,0.00,WeatherDisplay:10.37,2013-03-03 19:24:00,
2013-03-03 14:29:00,38.3,18.8,29.70,NW,315,4.9,4.9,45,0.00,CLR,CLR,0.00,WeatherDisplay:10.37,2013-03-03 19:29:00,
2013-03-03 14:34:00,37.8,17.8,29.70,NW,315,7.4,7.4,44,0.00,CLR,CLR,0.00,WeatherDisplay:10.37,2013-03-03 19:34:00,
2013-03-03 14:40:00,37.6,18.6,29.70,NE,45,0.0,0.0,46,0.00,CLR,CLR,0.00,WeatherDisplay:10.37,2013-03-03 19:40:00,
2013-03-03 14:45:00,38.3,18.3,29.70,North,0,5.3,5.8,44,0.00,CLR,CLR,0.00,WeatherDisplay:10.37,2013-03-03 19:45:00,
2013-03-03 14:50:00,39.2,19.6,29.70,NE,45,0.0,0.0,45,0.00,CLR,CLR,0.00,WeatherDisplay:10.37,2013-03-03 19:50:00,
2013-03-03 14:55:00,38.1,18.1,29.70,NNW,338,6.1,6.1,44,0.00,CLR,CLR,0.00,WeatherDisplay:10.37,2013-03-03 19:55:00,
2013-03-03 15:00:00,37.8,17.8,29.70,NNE,22,3.3,3.5,44,0.00,CLR,CLR,0.00,WeatherDisplay:10.37,2013-03-03 20:00:00,
2013-03-03 15:05:00,37.6,17.6,29.70,North,0,6.1,6.1,44,0.00,CLR,CLR,0.00,WeatherDisplay:10.37,2013-03-03 20:05:00,
2013-03-03 15:10:00,37.2,17.8,29.70,NE,45,2.2,2.3,45,0.00,CLR,CLR,0.00,WeatherDisplay:10.37,2013-03-03 20:10:00,
2013-03-03 15:15:00,38.1,18.1,29.70,NE,45,4.9,4.9,44,0.00,CLR,CLR,0.00,WeatherDisplay:10.37,2013-03-03 20:15:00,
2013-03-03 15:20:00,38.5,18.4,29.70,NNE,22,0.0,0.0,44,0.00,CLR,CLR,0.00,WeatherDisplay:10.37,2013-03-03 20:20:00,
2013-03-03 15:25:00,39.9,19.2,29.70,NNW,338,0.0,0.0,43,0.00,CLR,CLR,0.00,WeatherDisplay:10.37,2013-03-03 20:25:00,
2013-03-03 15:30:00,40.6,19.3,29.70,NE,45,4.6,4.6,42,0.00,CLR,CLR,0.00,WeatherDisplay:10.37,2013-03-03 20:30:00,
2013-03-03 15:35:00,40.6,18.7,29.70,North,0,4.6,4.6,41,0.00,CLR,CLR,0.00,WeatherDisplay:10.37,2013-03-03 20:35:00,
2013-03-03 15:40:00,39.6,18.3,29.70,North,0,3.1,3.5,42,0.00,CLR,CLR,0.00,WeatherDisplay:10.37,2013-03-03 20:40:00,
2013-03-03 15:45:00,40.6,19.9,29.70,NNW,338,0.6,1.2,43,0.00,CLR,CLR,0.00,WeatherDisplay:10.37,2013-03-03 20:45:00,
2013-03-03 15:50:00,41.9,19.3,29.70,NNW,338,2.9,3.5,40,0.00,CLR,CLR,0.00,WeatherDisplay:10.37,2013-03-03 20:50:00,
2013-03-03 15:55:00,41.4,18.8,29.70,NE,45,4.6,4.6,40,0.00,CLR,CLR,0.00,WeatherDisplay:10.37,2013-03-03 20:55:00,
2013-03-03 16:01:00,41.5,19.6,29.69,NNE,22,6.8,6.9,41,0.00,CLR,CLR,0.00,WeatherDisplay:10.37,2013-03-03 21:01:00,
2013-03-03 16:06:00,40.3,18.4,29.70,North,0,4.6,4.6,41,0.00,CLR,CLR,0.00,WeatherDisplay:10.37,2013-03-03 21:06:00,
2013-03-03 16:11:00,39.0,17.8,29.70,North,0,5.5,0.0,42,0.00,CLR,CLR,0.00,WeatherDisplay:10.37,2013-03-03 21:11:00,
2013-03-03 16:16:00,37.8,16.7,29.70,North,0,3.8,3.8,42,0.00,CLR,CLR,0.00,WeatherDisplay:10.37,2013-03-03 21:16:00,
2013-03-03 16:22:00,37.8,17.2,29.70,NE,45,4.2,4.6,43,0.00,CLR,CLR,0.00,WeatherDisplay:10.37,2013-03-03 21:22:00,
2013-03-03 16:27:00,38.5,17.9,29.70,North,0,3.3,4.6,43,0.00,CLR,CLR,0.00,WeatherDisplay:10.37,2013-03-03 21:27:00,
2013-03-03 16:32:00,39.4,18.2,29.70,NNE,22,3.3,3.5,42,0.00,CLR,CLR,0.00,WeatherDisplay:10.37,2013-03-03 21:32:00,
2013-03-03 16:37:00,40.1,18.8,29.70,North,0,4.4,4.6,42,0.00,CLR,CLR,0.00,WeatherDisplay:10.37,2013-03-03 21:37:00,
2013-03-03 16:42:00,40.1,18.3,29.70,NNE,22,2.0,2.3,41,0.00,CLR,CLR,0.00,WeatherDisplay:10.37,2013-03-03 21:42:00,
2013-03-03 16:47:00,40.6,18.7,29.70,NNE,22,5.2,5.2,41,0.00,CLR,CLR,0.00,WeatherDisplay:10.37,2013-03-03 21:47:00,
2013-03-03 16:52:00,40.3,18.4,29.71,North,0,7.0,7.0,41,0.00,CLR,CLR,0.00,WeatherDisplay:10.37,2013-03-03 21:52:00,
2013-03-03 16:57:00,40.3,18.4,29.71,NNE,22,4.4,4.6,41,0.00,CLR,CLR,0.00,WeatherDisplay:10.37,2013-03-03 21:57:00,
2013-03-03 17:02:00,40.6,18.7,29.71,WNW,292,3.8,3.8,41,0.00,CLR,CLR,0.00,WeatherDisplay:10.37,2013-03-03 22:02:00,
2013-03-03 17:07:00,40.8,18.9,29.71,NW,315,3.8,3.8,41,0.00,CLR,CLR,0.00,WeatherDisplay:10.37,2013-03-03 22:07:00,
2013-03-03 17:13:00,41.2,19.2,29.71,WNW,292,3.3,3.5,41,0.00,CLR,CLR,0.00,WeatherDisplay:10.37,2013-03-03 22:13:00,
2013-03-03 17:18:00,39.6,18.3,29.71,North,0,7.0,7.0,42,0.00,CLR,CLR,0.00,WeatherDisplay:10.37,2013-03-03 22:18:00,
2013-03-03 17:23:00,38.5,17.9,29.71,North,0,3.8,3.8,43,0.00,CLR,CLR,0.00,WeatherDisplay:10.37,2013-03-03 22:23:00,
2013-03-03 17:28:00,38.5,18.4,29.72,NNE,22,4.6,4.6,44,0.00,CLR,CLR,0.00,WeatherDisplay:10.37,2013-03-03 22:28:00,
2013-03-03 17:36:00,37.0,17.6,29.73,North,0,4.9,4.9,45,0.00,CLR,CLR,0.00,WeatherDisplay:10.37,2013-03-03 22:36:00,
2013-03-03 17:41:00,36.5,17.1,29.73,NNW,338,7.0,7.0,45,0.00,CLR,CLR,0.00,WeatherDisplay:10.37,2013-03-03 22:41:00,
2013-03-03 17:46:00,36.0,17.2,29.73,North,0,3.8,3.8,46,0.00,CLR,CLR,0.00,WeatherDisplay:10.37,2013-03-03 22:46:00,
2013-03-03 17:51:00,34.9,16.7,29.74,North,0,4.4,5.8,47,0.00,CLR,CLR,0.00,WeatherDisplay:10.37,2013-03-03 22:51:00,
2013-03-03 17:56:00,34.5,16.8,29.74,West,270,4.0,4.0,48,0.00,CLR,CLR,0.00,WeatherDisplay:10.37,2013-03-03 22:56:00,
2013-03-03 18:01:00,34.3,17.1,29.74,NE,45,0.0,3.5,49,0.00,CLR,CLR,0.00,WeatherDisplay:10.37,2013-03-03 23:01:00,
2013-03-03 18:07:00,34.3,17.6,29.74,NNE,22,2.6,2.6,50,0.00,CLR,CLR,0.00,WeatherDisplay:10.37,2013-03-03 23:07:00,
2013-03-03 18:12:00,33.6,16.5,29.74,NNE,22,4.6,4.6,49,0.00,CLR,CLR,0.00,WeatherDisplay:10.37,2013-03-03 23:12:00,
2013-03-03 18:17:00,33.6,16.5,29.74,North,0,0.0,0.0,49,0.00,CLR,CLR,0.00,WeatherDisplay:10.37,2013-03-03 23:17:00,
2013-03-03 18:22:00,33.4,15.8,29.74,NNE,22,7.0,7.0,48,0.00,CLR,CLR,0.00,WeatherDisplay:10.37,2013-03-03 23:22:00,
2013-03-03 18:27:00,32.5,15.0,29.74,NNE,22,4.2,4.6,48,0.00,CLR,CLR,0.00,WeatherDisplay:10.37,2013-03-03 23:27:00,
2013-03-03 18:32:00,32.5,15.5,29.75,NW,315,3.3,4.6,49,0.00,CLR,CLR,0.00,WeatherDisplay:10.37,2013-03-03 23:32:00,
2013-03-03 18:37:00,32.2,15.1,29.75,NNE,22,3.5,3.5,49,0.00,CLR,CLR,0.00,WeatherDisplay:10.37,2013-03-03 23:37:00,
2013-03-03 18:42:00,32.0,15.0,29.74,NNE,22,4.0,4.0,49,0.00,CLR,CLR,0.00,WeatherDisplay:10.37,2013-03-03 23:42:00,
2013-03-03 18:48:00,31.5,14.5,29.75,NNE,22,3.8,3.8,49,0.00,CLR,CLR,0.00,WeatherDisplay:10.37,2013-03-03 23:48:00,
2013-03-03 18:53:00,31.3,14.8,29.75,North,0,5.8,5.8,50,0.00,CLR,CLR,0.00,WeatherDisplay:10.37,2013-03-03 23:53:00,
2013-03-03 18:58:00,30.9,14.4,29.75,NNE,22,3.3,3.5,50,0.00,CLR,CLR,0.00,WeatherDisplay:10.37,2013-03-03 23:58:00,
2013-03-03 19:03:00,30.7,14.7,29.75,NNE,22,0.0,0.0,51,0.00,CLR,CLR,0.00,WeatherDisplay:10.37,2013-03-04 00:03:00,
2013-03-03 19:08:00,30.4,14.4,29.75,NNE,22,0.0,0.0,51,0.00,CLR,CLR,0.00,WeatherDisplay:10.37,2013-03-04 00:08:00,
2013-03-03 19:13:00,30.0,14.5,29.76,NNE,22,0.0,0.0,52,0.00,CLR,CLR,0.00,WeatherDisplay:10.37,2013-03-04 00:13:00,
2013-03-03 19:18:00,30.0,14.5,29.76,NNE,22,0.0,0.0,52,0.00,CLR,CLR,0.00,WeatherDisplay:10.37,2013-03-04 00:18:00,
2013-03-03 19:23:00,29.8,14.8,29.76,North,0,0.0,0.0,53,0.00,CLR,CLR,0.00,WeatherDisplay:10.37,2013-03-04 00:23:00,
2013-03-03 19:28:00,29.5,14.4,29.76,North,0,0.0,0.0,53,0.00,CLR,CLR,0.00,WeatherDisplay:10.37,2013-03-04 00:28:00,
2013-03-03 19:33:00,29.3,14.3,29.76,North,0,0.0,0.0,53,0.00,CLR,CLR,0.00,WeatherDisplay:10.37,2013-03-04 00:33:00,
2013-03-03 19:38:00,29.1,14.5,29.76,NNE,22,0.0,0.0,54,0.00,CLR,CLR,0.00,WeatherDisplay:10.37,2013-03-04 00:38:00,
2013-03-03 19:43:00,29.1,14.5,29.76,North,0,0.0,0.0,54,0.00,CLR,CLR,0.00,WeatherDisplay:10.37,2013-03-04 00:43:00,
2013-03-03 19:48:00,28.9,14.4,29.76,NNE,22,0.0,0.0,54,0.00,CLR,CLR,0.00,WeatherDisplay:10.37,2013-03-04 00:48:00,
2013-03-03 19:53:00,28.9,14.4,29.77,NNE,22,0.0,0.0,54,0.00,CLR,CLR,0.00,WeatherDisplay:10.37,2013-03-04 00:53:00,
2013-03-03 19:58:00,28.8,14.2,29.76,North,0,0.0,0.0,54,0.00,CLR,CLR,0.00,WeatherDisplay:10.37,2013-03-04 00:58:00,
2013-03-03 20:03:00,28.8,14.6,29.77,North,0,0.0,0.0,55,0.00,CLR,CLR,0.00,WeatherDisplay:10.37,2013-03-04 01:03:00,
2013-03-03 20:08:00,28.8,14.6,29.76,North,0,0.0,0.0,55,0.00,CLR,CLR,0.00,WeatherDisplay:10.37,2013-03-04 01:08:00,
2013-03-03 20:14:00,28.4,14.3,29.76,NNE,22,0.0,0.0,55,0.00,CLR,CLR,0.00,WeatherDisplay:10.37,2013-03-04 01:14:00,
2013-03-03 20:19:00,28.6,14.4,29.77,NNE,22,0.0,0.0,55,0.00,CLR,CLR,0.00,WeatherDisplay:10.37,2013-03-04 01:19:00,
2013-03-03 20:24:00,28.6,14.4,29.76,NNE,22,0.0,0.0,55,0.00,CLR,CLR,0.00,WeatherDisplay:10.37,2013-03-04 01:24:00,
2013-03-03 20:29:00,28.8,15.0,29.77,North,0,3.1,3.5,56,0.00,CLR,CLR,0.00,WeatherDisplay:10.37,2013-03-04 01:29:00,
2013-03-03 20:34:00,28.9,14.8,29.77,NNE,22,4.2,4.6,55,0.00,CLR,CLR,0.00,WeatherDisplay:10.37,2013-03-04 01:34:00,
2013-03-03 20:39:00,28.9,14.8,29.77,NNE,22,3.3,4.6,55,0.00,CLR,CLR,0.00,WeatherDisplay:10.37,2013-03-04 01:39:00,
2013-03-03 20:45:00,28.9,14.8,29.77,NNE,22,0.0,0.0,55,0.00,CLR,CLR,0.00,WeatherDisplay:10.37,2013-03-04 01:45:00,
2013-03-03 20:50:00,28.9,15.2,29.78,NNE,22,0.0,0.0,56,0.00,CLR,CLR,0.00,WeatherDisplay:10.37,2013-03-04 01:50:00,
2013-03-03 20:55:00,28.8,15.4,29.77,NNE,22,0.0,0.0,57,0.00,CLR,CLR,0.00,WeatherDisplay:10.37,2013-03-04 01:55:00,
2013-03-03 21:00:00,28.6,15.3,29.77,NNE,22,0.0,0.0,57,0.00,CLR,CLR,0.00,WeatherDisplay:10.37,2013-03-04 02:00:00,
2013-03-03 21:05:00,28.6,15.3,29.77,NNE,22,4.2,4.6,57,0.00,CLR,CLR,0.00,WeatherDisplay:10.37,2013-03-04 02:05:00,
2013-03-03 21:10:00,28.6,15.3,29.77,NNE,22,4.2,4.6,57,0.00,CLR,CLR,0.00,WeatherDisplay:10.37,2013-03-04 02:10:00,
2013-03-03 21:15:00,28.6,15.3,29.77,NNE,22,4.2,4.6,57,0.00,CLR,CLR,0.00,WeatherDisplay:10.37,2013-03-04 02:15:00,
2013-03-03 21:20:00,28.2,14.5,29.79,NNE,22,4.9,4.9,56,0.00,CLR,CLR,0.00,WeatherDisplay:10.37,2013-03-04 02:20:00,
2013-03-03 21:25:00,28.0,13.9,29.78,NE,45,5.8,5.8,55,0.00,CLR,CLR,0.00,WeatherDisplay:10.37,2013-03-04 02:25:00,
2013-03-03 21:30:00,28.4,14.3,29.78,North,0,5.3,5.8,55,0.00,CLR,CLR,0.00,WeatherDisplay:10.37,2013-03-04 02:30:00,
2013-03-03 21:35:00,28.0,13.5,29.79,North,0,4.9,6.9,54,0.00,CLR,CLR,0.00,WeatherDisplay:10.37,2013-03-04 02:35:00,
2013-03-03 21:41:00,28.0,13.5,29.79,NNE,22,7.4,7.4,54,0.00,CLR,CLR,0.00,WeatherDisplay:10.37,2013-03-04 02:41:00,
2013-03-03 21:46:00,28.2,13.3,29.78,North,0,7.0,7.0,53,0.00,CLR,CLR,0.00,WeatherDisplay:10.37,2013-03-04 02:46:00,
2013-03-03 21:51:00,28.4,13.9,29.79,NNE,22,4.0,4.0,54,0.00,CLR,CLR,0.00,WeatherDisplay:10.37,2013-03-04 02:51:00,
2013-03-03 21:56:00,28.2,13.7,29.79,NNE,22,4.4,4.6,54,0.00,CLR,CLR,0.00,WeatherDisplay:10.37,2013-03-04 02:56:00,
2013-03-03 22:01:00,28.0,13.5,29.79,NNE,22,5.3,5.8,54,0.00,CLR,CLR,0.00,WeatherDisplay:10.37,2013-03-04 03:01:00,
2013-03-03 22:07:00,28.0,13.5,29.79,North,0,2.9,3.5,54,0.00,CLR,CLR,0.00,WeatherDisplay:10.37,2013-03-04 03:07:00,
2013-03-03 22:12:00,28.0,13.5,29.79,North,0,3.1,3.5,54,0.00,CLR,CLR,0.00,WeatherDisplay:10.37,2013-03-04 03:12:00,
2013-03-03 22:17:00,27.9,13.3,29.79,North,0,4.0,4.0,54,0.00,CLR,CLR,0.00,WeatherDisplay:10.37,2013-03-04 03:17:00,
2013-03-03 22:22:00,27.7,13.2,29.79,NNE,22,4.9,4.9,54,0.00,CLR,CLR,0.00,WeatherDisplay:10.37,2013-03-04 03:22:00,
2013-03-03 22:27:00,27.5,13.0,29.78,North,0,5.3,5.8,54,0.00,CLR,CLR,0.00,WeatherDisplay:10.37,2013-03-04 03:27:00,
2013-03-03 22:32:00,27.5,13.0,29.78,North,0,4.6,4.6,54,0.00,CLR,CLR,0.00,WeatherDisplay:10.37,2013-03-04 03:32:00,
2013-03-03 22:37:00,28.0,13.5,29.78,North,0,4.6,4.6,54,0.00,CLR,CLR,0.00,WeatherDisplay:10.37,2013-03-04 03:37:00,
2013-03-03 22:42:00,28.0,13.5,29.79,NNE,22,4.6,4.6,54,0.00,CLR,CLR,0.00,WeatherDisplay:10.37,2013-03-04 03:42:00,
2013-03-03 22:47:00,27.7,13.2,29.79,North,0,0.0,0.0,54,0.00,CLR,CLR,0.00,WeatherDisplay:10.37,2013-03-04 03:47:00,
2013-03-03 22:52:00,27.7,13.2,29.79,NNE,22,0.0,0.0,54,0.00,CLR,CLR,0.00,WeatherDisplay:10.37,2013-03-04 03:52:00,
2013-03-03 22:57:00,27.9,13.3,29.79,North,0,5.8,5.8,54,0.00,CLR,CLR,0.00,WeatherDisplay:10.37,2013-03-04 03:57:00,
2013-03-03 23:02:00,28.0,13.5,29.78,NNE,22,4.6,4.6,54,0.00,CLR,CLR,0.00,WeatherDisplay:10.37,2013-03-04 04:02:00,
2013-03-03 23:08:00,28.0,13.5,29.78,NNE,22,5.3,5.8,54,0.00,CLR,CLR,0.00,WeatherDisplay:10.37,2013-03-04 04:08:00,
2013-03-03 23:13:00,28.0,13.5,29.78,NNE,22,3.5,3.5,54,0.00,CLR,CLR,0.00,WeatherDisplay:10.37,2013-03-04 04:13:00,
2013-03-03 23:18:00,27.9,13.3,29.78,NNE,22,3.1,3.5,54,0.00,CLR,CLR,0.00,WeatherDisplay:10.37,2013-03-04 04:18:00,
2013-03-03 23:23:00,28.0,13.5,29.78,NNE,22,0.0,0.0,54,0.00,CLR,CLR,0.00,WeatherDisplay:10.37,2013-03-04 04:23:00,
2013-03-03 23:28:00,27.7,13.2,29.77,NNE,22,3.1,3.5,54,0.00,CLR,CLR,0.00,WeatherDisplay:10.37,2013-03-04 04:28:00,
2013-03-03 23:33:00,27.3,13.3,29.78,North,0,4.4,4.6,55,0.00,CLR,CLR,0.00,WeatherDisplay:10.37,2013-03-04 04:33:00,
2013-03-03 23:38:00,27.9,13.8,29.77,North,0,0.0,3.5,55,0.00,CLR,CLR,0.00,WeatherDisplay:10.37,2013-03-04 04:38:00,
2013-03-03 23:43:00,27.7,13.2,29.77,NNE,22,0.0,0.0,54,0.00,CLR,CLR,0.00,WeatherDisplay:10.37,2013-03-04 04:43:00,
2013-03-03 23:48:00,27.5,13.0,29.78,North,0,0.0,0.0,54,0.00,CLR,CLR,0.00,WeatherDisplay:10.37,2013-03-04 04:48:00,
2013-03-03 23:53:00,27.1,13.1,29.78,WNW,292,0.0,0.0,55,0.00,CLR,CLR,0.00,WeatherDisplay:10.37,2013-03-04 04:53:00,
2013-03-03 23:59:00,27.1,13.1,29.78,NNW,338,0.0,0.0,55,0.00,CLR,CLR,0.00,WeatherDisplay:10.37,2013-03-04 04:59:00,